Wind_Speed
16 17 18 17 17 16 16 16 17 17 18 18 19 19 19 19 20 20 20 20 20 20 20 20 20 20 20 20 20 20 21 20 19 19 20 21 21 21 21 21 21 20 21
17 17 18 18 17 17 17 17 18 19 19 19 19 20 20 20 21 21 21 22 22 22 22 22 22 22 22 22 22 22 22 22 22 21 22 22 22 22 23 22 22 22 22
17 18 18 18 18 18 18 19 19 20 20 20 20 21 21 22 22 22 22 23 23 23 23 23 23 24 24 24 24 24 24 24 24 23 24 24 25 24 24 25 24 25 24
19 19 19 19 19 19 20 20 20 21 21 21 22 22 22 23 23 23 24 24 24 24 24 24 24 24 24 25 25 25 25 25 25 25 25 25 26 26 26 26 26 27 27
20 21 21 20 20 21 21 22 22 23 23 23 23 24 24 24 24 24 24 24 24 25 25 25 26 25 25 26 26 26 27 27 27 27 28 28 28 29 29 29 28 28 28
22 22 22 22 22 22 23 23 24 25 25 25 25 25 26 26 25 25 25 25 26 26 26 26 27 27 27 27 27 28 28 28 29 29 29 30 30 31 31 31 30 30 29
23 23 23 24 23 23 24 25 25 26 26 26 26 27 27 27 27 27 27 27 27 27 27 27 27 28 28 28 28 29 29 30 30 31 31 31 32 32 32 32 32 32 32
25 24 25 25 25 25 25 26 27 27 28 28 28 29 29 29 29 29 29 29 29 29 29 29 29 29 29 29 30 30 31 31 32 33 33 33 33 33 33 33 32 32 33
26 26 27 27 27 27 27 28 28 28 29 29 30 30 30 30 31 31 30 30 30 31 31 31 31 31 31 31 32 32 32 33 33 33 33 33 33 33 33 33 33 33 33
27 27 28 28 28 28 29 29 30 30 30 30 30 30 30 30 31 31 31 31 31 32 32 33 33 33 33 33 33 33 33 33 33 33 34 34 34 34 34 33 33 34 34
28 29 29 30 30 30 31 31 31 31 31 31 31 31 31 31 31 32 32 32 32 32 33 34 34 34 34 34 33 33 34 34 34 35 36 36 36 36 35 34 34 34 34
30 30 31 32 32 32 32 33 33 32 32 32 32 32 32 32 32 32 32 33 34 34 34 34 34 34 34 34 34 34 35 35 36 35 35 36 36 36 36 35 34 34 34
32 32 32 33 33 33 33 34 34 33 34 34 33 33 33 33 33 33 34 34 35 35 35 35 34 34 34 34 34 34 34 35 35 34 34 35 35 36 36 35 35 35 35
32 33 33 33 33 33 34 34 34 34 34 34 34 35 34 33 34 34 35 35 35 35 35 34 33 33 33 32 32 33 34 34 34 33 33 34 34 35 35 35 34 34 34
33 34 34 33 34 34 34 35 35 35 35 34 34 34 34 34 35 35 35 35 34 34 34 33 33 33 32 32 33 33 33 33 33 33 33 32 32 32 33 33 32 32 32
33 34 34 34 34 35 35 35 35 34 34 34 34 34 34 35 35 35 35 35 35 35 34 33 33 33 33 33 33 33 32 32 32 31 31 31 31 31 30 30 30 30 29
33 33 33 33 34 34 34 34 33 33 33 33 34 35 35 35 36 36 35 35 36 35 33 32 32 32 32 32 32 32 32 32 31 30 30 30 30 29 28 29 28 28 28
32 32 33 33 33 33 32 33 33 33 34 34 35 35 35 36 37 37 36 35 34 34 32 31 31 31 31 31 31 30 30 30 29 29 29 29 28 28 28 28 28 28 28
31 32 32 32 32 32 32 32 33 34 34 34 35 35 35 35 35 35 33 32 31 30 30 30 30 30 30 30 29 28 28 27 27 28 28 28 28 27 27 27 27 27 27
31 31 32 32 31 31 31 32 32 33 33 33 33 33 33 33 32 30 30 30 29 28 28 28 29 28 28 27 27 27 27 26 26 27 27 27 27 26 26 26 26 26 26
30 31 31 31 30 30 31 32 32 32 32 33 33 33 33 31 30 29 30 29 29 28 28 28 28 28 27 27 27 27 27 26 26 26 26 26 25 25 25 25 25 24 24
29 30 30 30 30 30 30 31 31 32 32 32 32 32 32 31 31 30 29 28 28 29 28 28 27 27 28 27 27 27 27 26 26 25 25 24 24 24 24 24 23 23 23
29 28 28 28 29 29 30 30 31 31 31 31 31 31 31 30 29 29 29 28 28 28 28 27 27 27 27 27 27 26 26 26 25 25 24 23 23 23 23 22 22 23 22
27 27 27 28 29 29 30 30 31 31 31 30 30 29 29 29 29 28 27 27 27 26 26 26 26 26 26 26 26 26 25 25 24 24 23 22 22 21 21 21 21 21 22
27 27 27 28 29 29 30 30 30 30 29 29 28 28 28 28 27 27 26 26 26 25 25 25 25 25 25 25 25 25 24 24 24 22 22 21 21 20 20 20 21 21 21
27 27 27 28 28 29 29 28 28 28 27 27 27 27 26 26 26 25 25 25 25 25 24 24 24 24 24 24 24 23 23 22 21 20 20 19 19 19 19 20 20 20 21
Wind_Direction
320 319 317 316 313 311 312 313 314 315 314 313 311 310 307 303 303 303 301 297 295 295 293 291 290 288 288 286 283 282 281 279 276 275 274 273 272 270 269 265 262 263 262
315 317 318 315 312 310 312 313 313 312 311 311 311 309 308 305 303 302 301 299 297 296 293 291 290 288 286 285 284 282 280 279 278 275 273 272 271 273 271 268 267 266 266
311 310 312 313 310 309 309 310 310 310 309 309 309 308 306 304 303 302 301 300 299 297 294 292 290 288 286 285 283 281 280 279 277 275 272 272 272 275 274 272 269 269 268
311 310 309 308 308 308 308 309 308 307 306 307 307 306 305 303 302 301 301 300 299 297 296 293 291 289 287 285 283 280 278 277 276 275 272 271 271 273 273 272 270 268 267
310 308 307 306 305 304 305 305 305 305 304 304 304 304 304 302 300 299 299 298 297 296 295 293 291 288 287 285 283 280 279 278 276 275 273 271 271 272 272 272 271 270 267
307 307 306 305 305 304 304 303 304 304 303 303 302 302 301 300 298 297 297 297 296 295 294 292 291 288 286 285 283 282 279 278 277 275 275 274 272 271 271 270 270 269 266
304 305 306 306 305 305 305 305 304 304 303 302 301 300 299 299 297 296 296 296 295 294 294 293 291 288 286 285 284 282 280 278 277 277 276 275 273 272 271 269 269 268 266
302 303 305 305 304 305 306 306 304 303 302 301 299 298 297 296 294 294 295 295 295 294 293 291 290 287 285 284 283 282 280 280 279 279 277 275 274 272 271 270 269 268 268
301 302 303 303 303 306 306 304 303 302 301 300 299 298 297 295 294 294 295 294 294 294 293 291 289 287 285 284 283 282 281 279 279 279 278 276 275 273 271 270 268 267 267
299 300 301 301 302 304 305 304 303 303 302 301 299 298 297 297 296 296 295 294 294 294 293 292 290 288 286 284 282 281 280 279 277 277 277 276 275 274 272 270 269 269 268
298 299 299 301 302 303 302 301 301 302 301 301 299 298 298 298 297 296 295 294 293 293 292 292 291 289 287 285 283 281 280 279 277 277 276 276 275 274 272 269 269 270 270
297 298 299 300 301 301 301 301 301 301 300 300 299 298 298 298 296 295 294 294 293 293 293 293 290 289 288 286 284 282 281 279 277 277 276 275 274 273 272 269 269 269 269
295 297 298 298 298 299 299 299 301 300 300 299 298 298 297 296 295 295 294 294 294 293 293 292 290 289 288 287 285 283 282 281 278 277 276 274 274 273 271 269 269 269 269
294 295 296 296 297 297 297 297 299 299 298 298 298 298 298 297 297 297 296 295 294 293 293 292 291 290 289 288 287 285 284 283 280 278 276 276 275 273 271 268 268 268 269
295 296 295 295 295 296 296 297 298 298 299 298 298 299 299 298 297 297 297 297 295 295 293 293 293 291 290 289 288 287 285 284 282 280 279 277 275 274 271 268 266 265 267
297 297 296 296 297 297 297 298 298 298 298 298 298 299 299 299 298 298 299 298 298 297 295 295 295 294 292 289 288 288 287 287 284 281 280 280 279 277 274 270 267 266 267
300 299 298 298 297 298 298 299 299 298 299 299 299 300 299 299 299 298 299 298 298 298 298 298 297 295 295 292 290 289 289 287 284 283 282 281 280 278 276 274 270 268 268
301 301 300 300 300 300 300 299 298 299 299 299 299 300 300 299 299 299 299 298 299 299 298 298 299 297 296 295 293 291 290 287 284 284 283 282 281 279 277 274 271 267 267
301 301 301 300 301 301 301 301 301 301 302 301 301 301 301 301 301 299 300 299 301 301 299 299 299 299 298 297 295 293 291 288 286 286 284 282 281 280 278 274 269 266 266
302 303 302 301 302 304 304 303 303 303 304 304 304 303 303 304 303 301 302 303 302 302 301 301 301 300 300 299 297 296 295 292 289 288 285 283 281 280 277 274 270 267 266
301 303 303 303 305 305 306 305 305 305 305 305 305 305 305 305 304 303 302 302 302 302 302 301 301 300 299 299 298 298 296 293 292 290 287 285 281 279 279 275 271 267 266
302 303 303 304 306 307 307 307 308 307 307 306 307 307 307 306 303 302 302 301 301 303 303 302 301 300 299 299 298 298 296 292 291 290 290 288 285 283 279 276 271 267 266
304 305 304 304 306 307 309 310 311 309 308 308 308 308 308 307 305 303 301 301 302 303 302 301 301 301 301 301 300 300 299 295 291 289 289 287 285 284 281 277 273 268 266
305 306 306 306 307 309 309 310 311 310 310 310 311 310 309 308 308 306 305 303 303 304 304 302 301 301 302 302 301 300 300 296 293 291 288 287 285 284 281 279 275 269 266
306 306 307 307 308 309 310 310 311 311 311 311 311 311 310 309 309 307 306 306 306 305 305 305 303 302 302 303 302 301 301 299 294 288 286 284 282 280 278 277 274 270 268
305 306 308 309 310 311 312 312 313 313 313 314 314 314 313 312 311 309 307 306 306 306 307 307 306 306 305 304 304 303 302 299 296 292 289 286 284 282 282 281 278 275 272
Height
5873 5872 5869 5867 5865 5864 5862 5860 5858 5856 5854 5852 5849 5847 5845 5843 5842 5840 5838 5836 5835 5833 5832 5830 5829 5828 5827 5826 5825 5824 5823 5823 5823 5823 5822 5821 5820 5820 5820 5820 5820 5821 5822
5870 5868 5866 5864 5862 5860 5858 5856 5854 5852 5850 5847 5845 5843 5841 5839 5837 5835 5833 5831 5829 5827 5826 5824 5823 5822 5821 5820 5819 5818 5817 5817 5817 5817 5816 5815 5814 5814 5814 5815 5815 5815 5816
5867 5865 5862 5860 5858 5856 5854 5852 5850 5848 5845 5843 5841 5838 5836 5834 5832 5830 5828 5825 5823 5821 5820 5818 5817 5815 5814 5813 5812 5812 5811 5810 5809 5809 5809 5808 5808 5808 5807 5808 5808 5808 5808
5863 5861 5859 5856 5854 5852 5850 5848 5846 5843 5841 5838 5836 5833 5831 5829 5826 5824 5822 5820 5817 5815 5813 5812 5810 5809 5807 5806 5805 5804 5804 5803 5802 5802 5802 5801 5801 5800 5800 5800 5800 5800 5801
5859 5857 5855 5852 5850 5848 5846 5843 5841 5838 5835 5833 5830 5828 5825 5823 5820 5818 5816 5813 5811 5809 5807 5805 5803 5801 5800 5799 5798 5797 5796 5795 5795 5794 5794 5793 5793 5792 5792 5792 5792 5792 5793
5854 5852 5850 5847 5845 5842 5840 5837 5835 5832 5829 5826 5824 5821 5819 5816 5814 5811 5809 5807 5804 5802 5800 5797 5795 5794 5792 5791 5789 5788 5788 5787 5786 5786 5785 5785 5784 5784 5783 5784 5784 5784 5785
5849 5846 5844 5841 5839 5837 5834 5831 5828 5825 5822 5820 5817 5814 5812 5809 5806 5804 5802 5799 5797 5794 5792 5789 5787 5786 5784 5783 5781 5780 5778 5777 5777 5777 5776 5775 5774 5774 5774 5774 5774 5774 5775
5843 5840 5838 5835 5833 5830 5827 5825 5822 5819 5816 5813 5810 5807 5804 5801 5799 5796 5793 5791 5788 5786 5783 5781 5779 5777 5775 5774 5773 5771 5770 5768 5767 5766 5766 5765 5765 5764 5763 5764 5764 5764 5765
5836 5834 5831 5829 5826 5823 5821 5818 5815 5811 5808 5805 5802 5799 5796 5793 5790 5787 5785 5782 5779 5777 5774 5772 5770 5768 5766 5764 5763 5762 5760 5759 5757 5756 5755 5754 5754 5753 5753 5753 5753 5754 5754
5829 5827 5824 5822 5819 5816 5813 5810 5807 5803 5800 5797 5793 5790 5787 5784 5781 5778 5775 5773 5770 5768 5765 5762 5760 5758 5756 5754 5752 5751 5750 5749 5747 5746 5745 5744 5743 5742 5742 5742 5743 5743 5743
5822 5819 5817 5814 5811 5808 5805 5802 5799 5795 5791 5788 5785 5782 5778 5775 5772 5769 5766 5763 5761 5758 5755 5753 5750 5747 5745 5743 5742 5740 5739 5738 5737 5736 5735 5733 5732 5732 5731 5731 5731 5732 5732
5814 5812 5809 5806 5803 5800 5797 5793 5790 5786 5783 5779 5776 5773 5769 5766 5763 5760 5757 5753 5751 5748 5745 5742 5740 5737 5735 5733 5731 5729 5728 5727 5726 5725 5724 5723 5722 5721 5720 5720 5720 5720 5721
5806 5803 5800 5797 5794 5791 5788 5784 5781 5777 5774 5771 5767 5764 5760 5757 5753 5750 5747 5744 5740 5738 5735 5732 5729 5727 5724 5722 5720 5718 5716 5715 5714 5713 5712 5711 5710 5709 5709 5709 5709 5709 5710
5797 5794 5791 5788 5785 5782 5779 5775 5772 5768 5765 5761 5758 5755 5751 5748 5744 5741 5737 5734 5731 5727 5724 5721 5719 5716 5714 5712 5709 5708 5706 5704 5703 5702 5701 5700 5699 5698 5697 5698 5698 5699 5699
5788 5785 5782 5779 5775 5772 5769 5765 5762 5759 5755 5752 5749 5746 5742 5739 5735 5731 5728 5724 5721 5717 5714 5712 5709 5707 5704 5702 5699 5697 5695 5694 5692 5691 5690 5689 5687 5687 5686 5686 5687 5687 5688
5778 5775 5772 5769 5766 5763 5759 5756 5752 5749 5746 5742 5739 5735 5732 5729 5725 5721 5717 5714 5710 5707 5705 5702 5699 5696 5694 5692 5690 5687 5685 5684 5682 5681 5680 5678 5677 5676 5676 5676 5676 5677 5677
5769 5765 5762 5759 5756 5753 5750 5747 5743 5740 5736 5732 5728 5725 5722 5718 5715 5711 5707 5704 5700 5697 5694 5692 5689 5687 5684 5681 5679 5677 5676 5674 5672 5671 5670 5669 5668 5667 5667 5667 5667 5667 5667
5759 5756 5753 5750 5747 5744 5741 5737 5734 5730 5727 5723 5719 5715 5712 5709 5705 5700 5696 5693 5690 5687 5684 5682 5680 5677 5675 5672 5670 5668 5666 5664 5663 5662 5660 5659 5658 5658 5657 5657 5657 5657 5658
5751 5748 5744 5741 5738 5735 5732 5728 5725 5721 5717 5714 5710 5707 5703 5698 5694 5690 5686 5683 5681 5678 5675 5673 5671 5669 5666 5663 5661 5659 5657 5655 5654 5653 5651 5650 5649 5648 5648 5647 5648 5648 5648
5743 5739 5736 5732 5729 5726 5723 5720 5716 5713 5709 5705 5701 5697 5694 5689 5684 5681 5678 5675 5672 5670 5667 5665 5662 5660 5657 5655 5653 5651 5649 5647 5645 5643 5642 5641 5640 5639 5638 5638 5638 5638 5639
5735 5731 5728 5725 5722 5719 5715 5712 5708 5704 5701 5697 5693 5688 5685 5681 5677 5673 5670 5668 5665 5662 5660 5657 5655 5652 5650 5647 5645 5643 5641 5639 5637 5635 5633 5632 5630 5630 5629 5628 5629 5629 5630
5727 5724 5720 5717 5714 5711 5707 5704 5700 5696 5692 5688 5684 5680 5676 5673 5669 5666 5663 5660 5657 5654 5652 5649 5647 5644 5642 5639 5637 5634 5632 5630 5628 5627 5625 5623 5622 5621 5620 5620 5620 5620 5621
5719 5715 5713 5710 5707 5703 5700 5696 5692 5688 5684 5680 5676 5673 5669 5665 5661 5658 5655 5652 5649 5647 5644 5641 5639 5637 5634 5631 5629 5626 5624 5622 5620 5618 5617 5616 5615 5614 5613 5612 5612 5612 5613
5711 5708 5705 5702 5699 5696 5692 5689 5685 5681 5677 5673 5669 5665 5661 5657 5654 5651 5648 5645 5642 5639 5637 5634 5632 5629 5626 5624 5621 5618 5616 5614 5612 5611 5609 5608 5607 5606 5606 5605 5605 5605 5606
5704 5702 5699 5695 5692 5689 5685 5681 5677 5673 5670 5666 5662 5658 5654 5651 5647 5644 5641 5638 5635 5632 5630 5627 5624 5622 5619 5617 5614 5611 5609 5607 5605 5603 5602 5601 5600 5599 5599 5598 5598 5598 5598
5698 5695 5692 5689 5685 5682 5678 5674 5670 5667 5663 5659 5655 5651 5647 5644 5640 5637 5634 5631 5628 5626 5623 5620 5618 5615 5613 5610 5607 5605 5602 5600 5598 5596 5595 5594 5593 5593 5592 5592 5591 5591 5591